Iowa City, IA

7:16 AM CDT on July 23, 2017 (GMT -0500)
Iowa City Municipal

Weather History for KIOW - December, 2012

Change the Weather History Date:

Sunday, December 2, 2012

  Actual Average Record
Temperature  
Mean Temperature 54 °F 30 °F  
Max Temperature 62 °F 38 °F 66 °F (1962)
Min Temperature 45 °F 22 °F 0 °F (1985)
Degree Days  
Heating Degree Days 11 35  
Month to date heating degree days 32 69  
Since 1 July heating degree days 1371 1376  
Cooling Degree Days 0 0  
Month to date cooling degree days 0 0  
Year to date cooling degree days 1266 912  
Growing Degree Days 4 (Base 50)    
Moisture  
Dew Point 48 °F    
Average Humidity 82    
Maximum Humidity 100    
Minimum Humidity 64    
Precipitation  
Precipitation 0.00 in 0.07 in 2.06 in (1982)
Month to date precipitation 0.02 0.14  
Year to date precipitation 24.85 34.90  
Sea Level Pressure  
Sea Level Pressure 29.94 in    
Wind  
Wind Speed 2 mph (SSE)    
Max Wind Speed 10 mph    
Max Gust Speed 15 mph    
Visibility 2 miles    
Events Fog    
T = Trace of Precipitation, MM = Missing Value Source: NWS Daily Summary

Daily Weather History Graph

Daily Weather History Graph

Search for Another Location

Airport or City:

Trip Planner

Search our weather history database for the weather conditions in past years. The results will help you decide how hot, cold, wet, or windy it might be!

Date:

Astronomy

Dec. 02, 2012 Rise Set
Actual Time 7:15 AM CST 4:36 PM CST
Civil Twilight 6:44 AM CST 5:07 PM CST
Nautical Twilight 6:09 AM CST 5:41 PM CST
Astronomical Twilight 5:36 AM CST 6:15 PM CST
Moon 8:25 PM CST (12/2) 10:03 AM CST (12/2)
Length of Visible Light 10h 23m
Length of Day
9h 21m
Waning Gibbous, 85% of the Moon is Illuminated
Dec 2
Waning Gibbous
Dec 6
Last Quarter
Dec 13
New
Dec 19
First Quarter
Dec 28
Full

Hourly Weather History & Observations

Time (CST) Temp. Windchill Dew Point Humidity Pressure Visibility Wind Dir Wind Speed Gust Speed Precip Events Conditions
12:18 AM 48.2 °F - 48.2 °F 100% 29.86 in 1.0 mi Calm Calm - N/A   Overcast
12:21 AM 48.2 °F - 48.2 °F 100% 29.87 in 2.0 mi Calm Calm - N/A   Overcast
12:52 AM 48.9 °F - 48.9 °F 100% 29.87 in 1.5 mi Calm Calm - N/A   Mostly Cloudy
12:54 AM 48.2 °F - 48.2 °F 100% 29.86 in 0.8 mi Calm Calm - N/A   Mostly Cloudy
1:34 AM 46.4 °F - 46.4 °F 100% 29.86 in 0.2 mi Calm Calm - N/A Fog Fog
1:37 AM 46.4 °F - 44.6 °F 93% 29.86 in 0.2 mi Calm Calm - N/A Fog Fog
1:52 AM 46.0 °F - 46.0 °F 100% 29.88 in 0.2 mi Calm Calm - N/A Fog Fog
2:23 AM 46.4 °F - 46.4 °F 100% 29.88 in 1.2 mi Calm Calm - N/A   Overcast
2:30 AM 46.4 °F - 46.4 °F 100% 29.88 in 3.0 mi Calm Calm - N/A   Overcast
2:52 AM 48.0 °F - 48.0 °F 100% 29.89 in 3.0 mi Calm Calm - N/A   Overcast
3:13 AM 48.2 °F - 46.4 °F 93% 29.88 in 2.5 mi Calm Calm - N/A   Overcast
3:38 AM 46.4 °F - 46.4 °F 100% 29.89 in 1.0 mi Calm Calm - N/A   Overcast
3:50 AM 46.4 °F - 46.4 °F 100% 29.89 in 1.5 mi Calm Calm - N/A   Overcast
3:52 AM 48.0 °F - 48.0 °F 100% 29.89 in 1.8 mi Calm Calm - N/A   Overcast
3:58 AM 46.4 °F - 46.4 °F 100% 29.89 in 0.8 mi Calm Calm - N/A   Overcast
4:10 AM 46.4 °F - 46.4 °F 100% 29.89 in 1.0 mi Calm Calm - N/A   Overcast
4:17 AM 46.4 °F - 46.4 °F 100% 29.89 in 0.8 mi Calm Calm - N/A   Overcast
4:21 AM 48.2 °F - 46.4 °F 93% 29.89 in 1.2 mi Calm Calm - N/A   Overcast
4:31 AM 48.2 °F - 48.2 °F 100% 29.89 in 2.0 mi Calm Calm - N/A   Overcast
4:39 AM 48.2 °F - 48.2 °F 100% 29.90 in 1.8 mi Calm Calm - N/A   Overcast
4:42 AM 48.2 °F - 46.4 °F 93% 29.90 in 2.0 mi Calm Calm - N/A   Overcast
4:52 AM 48.0 °F - 48.0 °F 100% 29.91 in 2.5 mi Calm Calm - N/A   Overcast
5:16 AM 48.2 °F - 48.2 °F 100% 29.91 in 1.5 mi WNW 4.6 mph - N/A   Overcast
5:33 AM 51.8 °F - 51.8 °F 100% 29.92 in 0.8 mi NW 4.6 mph - N/A   Overcast
5:52 AM 51.1 °F - 51.1 °F 100% 29.94 in 0.5 mi NNW 4.6 mph - N/A Fog Fog
6:28 AM 51.8 °F - 51.8 °F 100% 29.95 in 1.2 mi NNW 4.6 mph - N/A   Overcast
6:52 AM 51.1 °F - 51.1 °F 100% 29.96 in 1.5 mi NNW 4.6 mph - N/A   Overcast
7:44 AM 51.8 °F - 50.0 °F 94% 29.98 in 1.0 mi NNE 4.6 mph - N/A   Overcast
7:52 AM 51.1 °F - 51.1 °F 100% 29.98 in 1.0 mi Calm Calm - N/A   Overcast
7:59 AM 51.8 °F - 51.8 °F 100% 29.98 in 1.2 mi Calm Calm - N/A   Overcast
8:12 AM 51.8 °F - 51.8 °F 100% 29.98 in 1.2 mi Calm Calm - N/A   Overcast
8:52 AM 52.0 °F - 51.1 °F 97% 30.01 in 1.5 mi Calm Calm - N/A   Overcast
9:35 AM 53.6 °F - 51.8 °F 94% 30.01 in 2.0 mi NW 4.6 mph - N/A   Overcast
9:52 AM 53.1 °F - 51.1 °F 93% 30.02 in 2.5 mi NW 3.5 mph - N/A   Overcast
10:00 AM 53.6 °F - 51.8 °F 94% 30.01 in 3.0 mi Calm Calm - N/A   Overcast
10:09 AM 53.6 °F - 51.8 °F 94% 30.01 in 3.0 mi Calm Calm - N/A   Mostly Cloudy
10:24 AM 55.4 °F - 51.8 °F 88% 30.02 in 3.0 mi NNW 3.5 mph - N/A   Scattered Clouds
10:52 AM 55.9 °F - 50.0 °F 80% 30.02 in 6.0 mi West 5.8 mph - N/A   Haze
11:52 AM 57.9 °F - 50.0 °F 75% 30.02 in 6.0 mi WNW 5.8 mph - N/A   Haze
12:52 PM 60.1 °F - 48.9 °F 67% 29.99 in 7.0 mi Calm Calm - N/A   Clear
1:52 PM 61.0 °F - 48.9 °F 64% 29.98 in 8.0 mi Calm Calm - N/A   Clear
2:52 PM 60.1 °F - 48.0 °F 64% 29.98 in 8.0 mi Calm Calm - N/A   Clear
3:52 PM 57.9 °F - 48.9 °F 72% 29.98 in 7.0 mi Calm Calm - N/A   Clear
4:52 PM 52.0 °F - 48.0 °F 86% 29.98 in 5.0 mi SE 4.6 mph - N/A   Clear
5:32 PM 51.8 °F - 48.2 °F 88% 30.01 in 6.0 mi South 3.5 mph - N/A   Mostly Cloudy
6:52 PM 48.9 °F - 46.9 °F 93% 30.01 in 4.0 mi Calm Calm - N/A   Mostly Cloudy
7:52 PM 48.0 °F - 46.9 °F 96% 30.00 in 4.0 mi Calm Calm - N/A   Overcast
8:29 PM 48.2 °F - 46.4 °F 93% 29.99 in 4.0 mi SE 3.5 mph - N/A   Mostly Cloudy
8:52 PM 50.0 °F - 48.9 °F 96% 30.00 in 4.0 mi ESE 5.8 mph - N/A   Overcast
9:19 PM 48.2 °F - 46.4 °F 93% 29.97 in 4.0 mi SSE 8.1 mph - N/A   Scattered Clouds
9:52 PM 48.9 °F - 46.9 °F 93% 29.98 in 4.0 mi ESE 6.9 mph - N/A   Clear
10:42 PM 46.4 °F 43.5 °F 44.6 °F 93% 29.97 in 2.5 mi SSE 5.8 mph - N/A   Clear
10:52 PM 46.0 °F 42.5 °F 45.0 °F 96% 29.97 in 2.0 mi SE 6.9 mph - N/A   Clear
11:06 PM 46.4 °F 42.4 °F 46.4 °F 100% 29.96 in 2.0 mi SE 8.1 mph - N/A   Scattered Clouds
11:13 PM 46.4 °F 42.4 °F 46.4 °F 100% 29.96 in 2.0 mi SSE 8.1 mph - N/A   Mostly Cloudy
11:23 PM 46.4 °F 41.9 °F 46.4 °F 100% 29.96 in 1.5 mi SSE 9.2 mph - N/A   Mostly Cloudy
11:27 PM 48.2 °F - 46.4 °F 93% 29.96 in 0.8 mi SE 9.2 mph - N/A   Overcast
11:52 PM 48.0 °F - 48.0 °F 100% 29.96 in 0.2 mi SE 6.9 mph - N/A Fog Fog